#timestamp,LO_Frequency,Hit,StdDev 
1586984415.3,286047001.9,N
1586984435.2,286047003.7,N
1586984455.0,286047003.0,N
1586984455.9,286047003.0,N
1586984475.8,286047005.2,N
1586984495.6,286047004.9,N
1586984515.5,286047007.4,Y
1586984535.3,286047004.4,P
1586984555.1,286047004.2,P
1586984575.9,286047000.7,N
1586984595.7,286046999.5,N
1586984615.5,286046998.8,N
1586984635.4,286047002.4,N
1586984655.2,286047002.4,N
1586984675.1,286047003.2,N
1586984676.0,286047003.2,N
1586984695.8,286047002.7,N
1586984715.6,286047004.2,N
1586984735.5,286047001.1,N
1586984755.3,286047000.7,N
1586984775.2,286046998.5,N
1586984795.9,286046998.2,N
1586984815.7,286047000.3,N
1586984835.6,286047002.7,N
1586984855.4,286047004.3,N
1586984875.2,286047004.4,N
1586984895.1,286047001.9,N
1586984896.0,286047001.9,N
1586984915.8,286046999.9,N
1586984935.7,286047000.9,N
1586984955.5,286047001.5,N
1586984975.3,286047004.3,N
1586984995.2,286047000.0,N
1586985015.0,286047000.8,N
1586985015.9,286047000.8,N
1586985035.8,286047001.0,N
1586985055.6,286046999.8,N
1586985075.4,286047002.4,N
1586985095.3,286047000.1,N
1586985115.1,286047002.4,N
1586985135.9,286047000.6,N
1586985155.7,286047001.9,N
1586985175.5,286047000.4,N
1586985195.4,286047002.7,N
1586985215.2,286047004.0,N
1586985235.0,286046999.7,N
1586985236.0,286046999.7,N
1586985255.8,286047001.5,N
1586985275.6,286047004.2,N
1586985295.5,286047002.0,N
1586985315.3,286047002.1,N
1586985335.1,286047004.1,N
1586985355.9,286047002.1,N
1586985375.7,286047002.3,N
1586985395.6,286047002.5,N
1586985415.4,286046999.7,N
1586985435.2,286047001.5,N
1586985455.1,286047002.3,N
1586985456.0,286047002.3,N
1586985475.8,286047000.0,N
1586985495.6,286047001.0,N
1586985515.5,286047001.4,N
1586985535.3,286047001.6,N
1586985555.2,286047002.8,N
1586985575.9,286047002.6,N
1586985595.7,286047000.1,N
1586985615.6,286047002.8,N
1586985635.4,286046999.8,N
1586985655.3,286047001.2,N
1586985675.1,286046998.4,N
1586985676.0,286046998.4,N
1586985695.8,286047002.8,N
1586985715.7,286046999.9,N
1586985735.5,286047001.1,N
1586985755.4,286046999.1,N
1586985775.2,286046999.4,N
1586985795.0,286046998.3,N
1586985795.9,286046998.3,N
1586985815.8,286047000.5,N
1586985835.6,286047002.5,N
1586985855.5,286047001.7,N
1586985875.3,286046999.7,N
1586985895.1,286047000.1,N
1586985915.9,286047002.8,N
1586985935.7,286047002.1,N
1586985955.5,286046999.8,N
1586985975.4,286047004.4,N
1586985995.2,286047002.7,N
1586986015.1,286047000.6,N
1586986016.0,286047000.6,N
1586986035.8,286046998.8,N
1586986055.6,286047000.8,N
1586986075.5,286046998.1,N
1586986095.3,286047002.8,N
1586986115.2,286046998.1,N
1586986135.9,286047000.7,N
1586986155.7,286047000.0,N
1586986175.6,286047000.6,N
1586986195.4,286047002.8,N
1586986215.2,286047001.1,N
1586986235.1,286046999.0,N
1586986236.0,286046999.0,N
1586986255.8,286047000.9,N
1586986275.7,286046999.9,N
1586986295.5,286047002.0,N
1586986315.3,286047001.7,N
1586986335.2,286047002.7,N
1586986355.0,286047003.5,N
1586986355.9,286047003.5,N
1586986375.8,286047001.9,N
1586986395.6,286047001.1,N
1586986415.4,286046999.7,N
1586986435.3,286047004.2,N
1586986455.1,286047001.6,N
1586986475.9,286047006.0,Y
1586986495.7,286047002.8,P
1586986515.5,286046998.3,N
1586986535.4,286046998.7,N
1586986555.2,286046997.8,N
1586986575.1,286046996.0,N
1586986576.0,286046996.0,N
1586986595.8,286046994.9,N
1586986615.6,286046997.8,N
1586986635.5,286046996.9,N
1586986655.3,286046998.1,N
1586986675.2,286047001.2,N
1586986695.9,286046999.4,N
1586986715.7,286047000.8,N
1586986735.6,286046998.9,N
1586986755.4,286046996.7,N
1586986775.2,286046996.5,N
1586986795.1,286046999.6,N
1586986796.0,286046999.6,N
1586986815.8,286046998.9,N
1586986835.7,286046997.3,N
1586986855.5,286046999.5,N
1586986875.3,286046996.9,N
1586986895.2,286047001.0,N
1586986915.0,286047001.1,N
1586986915.9,286047001.1,N
1586986935.8,286046999.3,N
1586986955.6,286047000.9,N
1586986975.4,286047000.3,N
1586986995.3,286046998.5,N
1586987015.1,286046999.0,N
1586987035.8,286046999.3,N
1586987055.7,286047000.5,N
1586987075.5,286047000.8,N
1586987095.4,286047000.7,N
1586987115.2,286046998.3,N
1586987135.0,286046998.6,N
1586987135.9,286046998.6,N
1586987155.8,286047001.2,N
1586987175.6,286047002.2,N
1586987195.5,286047003.9,N
1586987215.3,286046999.7,N
1586987235.1,286047000.2,N
1586987255.9,286047000.6,N
1586987275.7,286047000.8,N
1586987295.6,286046997.1,N
1586987315.4,286046997.4,N
1586987335.2,286046997.2,N
1586987355.1,286046995.8,N
1586987356.0,286046995.8,N
1586987375.8,286046997.6,N
1586987395.6,286046998.9,N
1586987415.5,286047000.7,N
1586987435.3,286046998.1,N
1586987455.2,286046998.2,N
1586987475.9,286047001.1,N
1586987495.7,286046999.3,N
1586987515.6,286047000.0,N
1586987535.4,286047002.6,N
1586987555.3,286047002.5,N
1586987575.1,286047000.3,N
1586987576.0,286047000.3,N
1586987595.8,286046999.3,N
1586987615.7,286046998.8,N
1586987635.5,286047001.2,N
1586987655.3,286047001.6,N
1586987675.2,286047002.6,N
1586987695.0,286047004.1,N
1586987695.9,286047004.1,N
1586987715.8,286047002.2,N
1586987735.6,286047002.2,N
1586987755.4,286047001.1,N
1586987775.3,286047001.2,N
1586987795.1,286047002.7,N
1586987815.8,286047001.8,N
1586987835.7,286047001.3,N
1586987855.5,286046999.8,N
1586987875.4,286047002.7,N
1586987895.2,286047000.5,N
1586987915.0,286047000.5,N
1586987915.9,286047000.5,N
1586987935.8,286046998.2,N
1586987955.6,286046997.8,N
1586987975.5,286046996.8,N
1586987995.3,286046998.2,N
